RH
63 65 93 91 88 88 89 89 90 90 89 89 90 91 91 92 93 93 92 91 87 81 79 80 81 81 81 83 86 88 88 88 86 79 73 76 78 80 83 86 85 55 85
66 66 93 91 89 88 89 91 92 91 90 90 90 90 90 92 93 93 92 90 86 78 77 79 80 80 82 85 88 89 89 88 88 87 84 78 78 78 81 87 86 69 86
71 70 70 92 90 88 88 89 90 90 91 92 92 93 93 93 92 92 92 90 86 78 76 76 78 80 83 86 88 88 90 91 91 89 86 53 52 78 80 86 87 85 84
70 70 67 93 91 89 89 90 90 89 90 93 93 93 92 90 89 89 91 91 87 79 74 73 76 80 84 88 89 90 90 90 89 87 56 58 55 81 80 84 84 84 84
74 69 75 92 92 90 90 90 89 90 92 93 93 91 90 90 90 91 93 92 88 80 76 72 74 79 85 88 88 88 87 88 89 75 57 60 54 68 81 83 83 84 87
75 72 86 93 92 92 90 89 90 90 91 92 93 92 89 88 88 90 92 92 88 84 81 78 76 79 83 85 85 85 85 85 86 56 60 64 64 74 79 83 87 87 90
84 77 73 94 93 91 90 89 90 91 91 91 90 90 91 90 89 91 91 91 91 88 88 88 87 85 82 82 83 84 85 86 57 54 57 57 62 85 82 82 88 90 90
87 86 79 91 94 93 90 90 92 92 92 92 92 92 92 92 91 90 90 90 90 92 92 93 94 94 93 90 86 84 87 87 56 50 51 53 71 81 83 85 91 92 92
89 92 93 86 88 94 94 94 94 94 93 94 93 94 95 95 94 93 93 93 92 91 91 91 93 95 96 95 95 95 94 92 66 60 55 48 76 82 77 83 89 91 92
83 86 85 85 84 86 85 96 96 96 96 91 91 94 92 90 88 89 88 89 86 85 84 84 85 86 91 93 96 95 96 89 64 78 69 64 85 79 73 84 85 89 91
79 82 83 83 83 84 83 85 88 90 91 89 86 90 87 84 80 74 81 79 78 79 78 78 78 79 82 82 87 90 96 92 84 87 89 92 91 89 83 77 83 87 90
92 96 95 92 88 91 86 92 89 80 76 76 75 79 83 78 76 66 68 72 71 72 69 71 73 69 66 58 67 77 78 79 94 92 96 94 94 89 85 86 82 83 91
97 95 95 94 96 94 95 94 95 92 85 81 77 78 74 69 71 68 65 63 65 67 58 54 51 50 56 58 75 79 69 73 86 90 87 88 92 90 89 88 89 82 86
97 95 96 94 95 94 95 94 90 87 82 85 87 83 84 83 83 80 60 66 70 71 67 59 52 58 59 57 56 57 58 62 62 65 74 77 80 79 78 85 90 88 87
96 94 94 91 92 90 87 91 93 92 90 88 83 81 85 85 85 80 80 66 63 62 65 62 60 58 56 55 54 54 54 56 62 54 69 70 72 68 69 72 76 85 86
89 88 85 84 87 81 84 84 90 84 77 83 80 77 79 76 76 72 70 67 64 65 57 56 55 54 58 57 53 55 56 57 56 58 54 65 73 74 72 69 68 72 84
76 75 81 78 74 78 71 71 71 62 54 54 57 69 67 64 63 60 55 54 58 56 54 52 52 49 46 45 50 48 52 60 58 59 51 53 58 69 72 69 76 74 69
74 72 68 64 61 63 65 60 55 56 54 53 56 57 64 64 63 61 55 57 60 56 53 50 51 48 48 45 49 43 52 57 52 51 53 52 50 46 55 70 68 74 86
55 62 57 56 55 63 65 60 60 62 54 55 55 54 64 64 64 57 55 59 59 52 55 53 51 56 53 50 41 39 50 54 53 40 54 54 55 52 50 60 69 70 68
59 59 54 53 62 67 62 60 58 53 54 52 52 56 61 61 63 58 57 63 56 53 55 57 62 56 56 55 44 40 48 51 50 45 49 45 47 51 47 53 50 50 69
56 58 57 60 62 51 50 53 57 53 53 54 55 66 64 63 65 64 58 60 59 61 65 66 61 63 56 59 51 47 41 46 52 46 45 49 46 45 46 46 43 44 44
58 58 56 56 58 53 49 54 56 54 55 56 62 68 71 67 68 62 65 64 67 61 68 70 70 62 58 60 61 51 50 43 42 45 45 47 52 46 45 46 49 49 48
58 58 54 57 58 55 59 57 58 59 58 57 64 64 67 67 71 72 70 69 68 65 64 68 70 72 64 57 66 60 59 52 57 44 47 47 52 49 52 52 50 51 50
56 55 54 56 55 57 59 58 60 54 60 68 67 65 59 63 65 67 68 64 65 60 64 66 64 69 67 64 59 58 67 72 68 64 49 50 47 47 51 47 51 52 53
51 55 61 62 62 63 62 61 59 66 68 65 62 61 59 56 53 51 54 55 56 51 55 59 56 58 51 59 60 65 69 68 64 84 82 64 53 48 46 46 50 47 49
50 58 62 61 62 63 65 69 73 76 70 60 59 52 49 46 44 48 46 51 53 51 50 47 49 53 58 57 53 52 55 67 72 70 58 54 54 46 46 43 46 45 46
Wind_Speed
9 14 11 9 10 8 11 12 13 15 15 14 15 15 15 15 12 11 10 9 10 11 12 12 12 11 10 10 10 9 7 6 6 8 9 8 8 9 9 9 8 10 9
16 14 12 12 12 10 11 12 12 13 16 15 14 12 12 11 11 11 10 10 10 11 12 11 10 10 9 9 8 8 6 7 8 8 7 7 6 6 6 6 2 10 9
17 14 14 12 13 13 13 12 12 13 14 15 14 14 12 12 11 11 10 9 9 10 10 10 9 9 8 7 7 6 6 6 8 7 5 5 6 3 3 3 4 7 9
16 13 13 12 13 12 13 13 13 13 13 13 14 14 13 12 10 10 9 9 9 10 9 9 8 8 7 7 6 5 4 4 5 3 4 4 5 6 6 4 4 6 8
12 12 12 12 13 12 12 13 12 13 12 11 11 12 13 12 11 9 8 9 9 10 10 9 8 8 7 6 6 5 4 3 3 4 2 1 1 5 6 7 8 8 6
11 11 11 11 14 13 13 14 13 11 11 11 10 10 10 9 9 8 8 7 8 8 8 8 8 7 7 6 6 5 5 5 5 5 5 4 6 2 7 7 5 4 5
13 13 13 12 13 15 16 15 13 13 10 10 9 8 7 8 7 7 7 7 7 8 8 8 7 6 5 5 4 5 5 6 7 5 6 6 6 8 11 9 7 6 7
11 8 9 11 10 12 14 16 16 13 12 10 10 9 9 9 8 7 6 6 6 7 7 7 6 7 7 6 5 4 5 6 6 7 7 7 7 11 12 11 9 9 8
12 11 9 9 10 10 8 10 12 15 13 13 13 13 13 15 15 14 14 13 14 14 14 13 11 8 6 6 5 5 4 5 7 7 9 7 7 11 14 13 12 11 10
12 11 9 8 10 10 9 13 12 17 19 19 19 19 16 17 17 18 15 15 15 15 15 14 13 13 10 10 11 8 4 7 8 8 9 8 17 18 17 17 13 13 13
10 10 10 10 10 10 10 10 14 16 17 17 17 17 12 9 10 12 14 16 18 17 17 17 16 15 13 11 9 8 8 2 3 3 2 11 18 20 20 17 16 15 16
10 10 10 11 10 11 9 10 10 10 9 10 11 12 10 10 10 11 13 17 19 18 17 16 16 14 12 8 8 8 5 7 5 3 3 11 18 19 21 20 18 18 17
10 9 10 11 9 10 10 6 4 5 6 7 11 10 12 9 8 8 7 7 8 14 8 11 11 9 11 8 6 5 6 5 3 3 4 7 15 16 20 24 23 20 18
9 9 10 10 10 10 6 4 5 5 5 7 8 11 7 6 7 8 7 8 8 8 10 10 8 9 9 9 9 9 9 6 4 3 4 8 13 14 18 22 23 20 13
10 9 9 9 10 7 9 6 7 7 7 6 5 8 9 8 8 7 8 8 9 9 9 9 8 8 10 10 9 9 9 8 6 4 3 10 13 14 16 18 20 21 17
9 10 9 11 11 12 9 10 9 6 8 7 7 9 12 9 8 8 7 7 8 8 9 9 9 9 9 9 11 11 10 8 7 7 6 6 11 14 15 17 17 18 20
13 10 12 12 10 11 11 9 9 8 10 10 10 13 14 11 11 10 9 10 9 9 11 9 11 10 10 10 11 10 9 10 8 10 9 8 8 13 16 22 20 17 17
13 11 13 12 12 13 12 9 10 10 10 10 10 10 13 12 11 10 9 9 8 8 10 10 10 10 11 11 10 9 7 7 11 11 10 8 9 9 10 19 22 22 20
12 11 15 12 13 14 13 10 11 11 10 9 8 9 11 11 11 10 9 9 10 9 10 10 9 10 11 12 11 9 6 5 7 9 11 11 12 11 9 14 17 18 21
8 9 13 12 13 12 9 8 8 8 8 8 9 9 10 9 10 9 8 9 9 8 9 10 10 9 9 11 10 9 6 5 7 9 10 8 11 12 13 14 12 11 16
6 7 9 12 9 7 5 5 6 8 7 8 8 10 10 9 9 9 8 8 8 9 10 10 8 10 8 10 8 10 6 5 6 11 9 8 13 12 13 12 10 10 11
9 7 7 9 6 5 4 4 4 5 7 7 7 10 10 11 10 9 9 8 9 8 10 10 10 7 7 9 8 8 7 6 8 11 9 8 14 11 13 14 14 14 13
10 9 8 7 7 7 8 7 6 6 4 5 6 7 10 11 11 11 11 10 10 9 9 10 10 11 8 8 10 7 6 6 14 3 9 9 13 11 11 14 15 14 15
10 9 10 8 9 7 5 6 7 6 6 4 6 7 8 12 12 12 11 11 10 8 10 9 8 8 9 8 7 8 7 9 8 10 7 14 12 13 14 12 13 14 14
10 10 9 10 10 9 8 9 8 9 7 5 5 8 9 9 12 13 12 11 10 8 9 10 10 10 7 7 7 7 8 8 8 9 12 12 12 12 11 11 13 13 15
9 9 9 12 10 10 10 9 11 10 8 6 6 6 6 7 8 12 11 10 9 9 10 9 9 9 9 8 7 8 7 7 9 9 13 14 14 13 13 14 12 12 12
Wind_Direction
140 135 132 130 112 109 103 105 110 108 104 98 99 103 110 115 110 103 93 83 79 76 68 61 61 68 75 80 86 86 86 101 108 95 93 97 90 101 102 98 138 116 103
134 137 135 125 115 111 93 82 83 87 95 96 99 99 97 90 89 89 81 76 75 73 73 73 72 70 71 75 83 84 83 88 76 62 85 99 84 92 98 105 91 116 123
127 136 137 120 123 121 113 105 95 96 93 96 89 88 80 79 81 74 75 75 78 78 76 76 82 85 85 80 74 83 86 77 74 70 64 90 86 103 97 101 109 120 127
129 136 135 125 116 111 108 101 97 93 88 89 95 95 97 96 91 90 79 70 65 65 68 75 79 85 82 75 73 77 76 81 92 103 114 104 124 139 155 170 169 159 151
123 126 116 102 95 93 89 91 90 93 88 79 80 88 91 90 79 67 63 63 55 57 52 53 59 62 65 61 61 53 59 51 9 290 36 41 241 152 183 181 183 184 197
103 104 102 100 101 94 93 90 83 77 83 85 79 84 89 94 102 98 77 64 66 63 66 60 56 52 50 48 35 25 19 12 314 314 327 319 300 260 220 203 202 193 189
114 124 129 122 121 120 115 109 102 100 93 99 101 96 93 90 75 71 58 59 51 49 40 37 37 47 54 53 48 27 10 350 313 305 297 293 303 293 245 216 214 209 200
114 118 122 115 102 116 126 125 122 114 106 93 83 72 68 60 55 49 52 45 52 58 63 56 41 26 16 24 33 30 8 353 319 316 310 298 325 310 269 219 199 205 213
63 51 56 92 97 83 77 102 113 108 90 78 69 55 50 55 53 51 46 46 49 42 36 34 38 48 40 20 20 30 24 11 337 340 328 316 337 300 300 257 204 202 204
80 70 56 57 74 76 77 56 67 85 88 82 71 62 49 49 44 41 41 46 53 49 41 35 28 19 33 41 35 25 62 90 45 11 345 341 325 304 289 280 219 208 207
93 92 87 85 80 79 62 44 60 60 74 83 82 81 75 67 52 45 37 40 43 38 36 33 25 17 10 25 33 16 326 345 350 44 16 346 328 311 300 289 252 212 210
67 61 80 69 73 64 52 40 50 57 51 65 78 83 81 71 57 58 41 38 41 40 33 32 25 15 10 8 356 14 27 12 0 0 33 347 309 314 321 296 283 241 214
34 55 58 77 75 67 66 40 41 36 46 46 55 77 78 73 62 51 38 34 36 36 29 32 27 23 17 10 3 343 11 15 347 352 330 318 313 316 310 305 290 266 244
33 54 57 64 67 75 84 77 73 74 61 58 39 51 52 68 53 54 49 37 36 33 25 25 26 15 13 11 11 9 9 6 326 345 308 305 300 300 297 301 291 275 272
87 66 54 69 71 71 77 69 50 57 53 53 55 57 64 67 63 55 46 36 39 32 30 26 21 17 16 9 9 10 7 3 2 343 322 315 305 306 298 304 313 310 269
90 84 81 68 75 78 66 76 77 71 81 73 63 54 56 55 56 53 45 39 40 32 30 25 17 17 14 4 3 7 5 6 11 20 18 355 345 348 341 331 325 322 320
112 93 93 90 89 93 90 90 86 84 78 67 60 53 54 53 57 57 49 42 35 31 28 27 21 19 11 5 4 6 6 16 31 30 31 31 20 18 17 13 1 341 333
98 113 111 113 112 100 89 75 74 68 70 66 62 61 59 59 56 55 50 42 33 34 28 26 20 13 11 4 357 1 12 38 35 23 28 29 22 14 11 9 10 14 6
115 131 112 113 103 95 90 81 74 72 70 68 68 65 59 57 53 54 48 37 30 31 28 20 21 16 11 358 350 353 0 19 31 18 23 20 16 11 3 1 3 8 11
126 134 117 107 101 96 94 89 82 76 72 65 59 54 51 51 50 54 55 44 37 37 32 22 20 19 16 358 343 345 353 5 24 15 10 11 13 7 4 1 354 357 2
94 107 117 111 111 104 107 100 85 81 76 67 60 52 49 47 48 48 50 42 36 38 33 27 15 14 17 3 348 340 339 345 11 1 354 3 3 359 356 355 353 348 345
131 128 118 103 99 94 104 106 96 96 77 72 58 52 45 50 49 55 47 44 35 32 31 26 17 2 7 15 356 331 336 323 353 332 344 345 352 346 344 347 344 345 344
132 128 125 106 109 100 107 116 103 97 98 79 53 58 51 55 54 49 46 44 40 31 25 22 14 14 356 6 359 4 337 335 326 28 330 342 338 337 338 337 336 336 336
128 125 102 112 107 104 111 104 104 103 99 73 70 62 60 49 48 45 44 40 38 32 26 17 16 8 2 360 351 0 334 322 322 316 340 323 334 325 329 327 325 328 330
138 111 118 108 95 92 96 106 107 102 98 96 87 72 55 52 44 39 34 33 32 29 24 18 11 9 5 354 353 348 335 318 316 319 307 324 323 323 321 327 326 317 320
118 120 122 102 93 97 99 102 104 103 101 88 60 68 51 46 39 35 32 31 32 31 23 15 10 13 12 18 2 1 350 346 329 319 312 317 312 316 320 311 313 322 321